TimeCST,TemperatureF,Dew PointF,Humidity,Sea Level PressureIn,VisibilityMPH,Wind Direction,Wind SpeedMPH,Gust SpeedMPH,PrecipitationIn,Events,Conditions,WindDirDegrees,DateUTC
12:53 AM,16.0,10.0,77,30.24,10.0,WSW,16.1,-,N/A,,Clear,240,2013-01-04 06:53:00
1:53 AM,15.1,10.0,80,30.22,10.0,SW,18.4,-,N/A,,Clear,230,2013-01-04 07:53:00
2:53 AM,16.0,10.0,77,30.21,10.0,WSW,16.1,-,N/A,,Clear,240,2013-01-04 08:53:00
3:53 AM,15.1,10.0,80,30.19,10.0,WSW,19.6,-,N/A,,Clear,240,2013-01-04 09:53:00
4:53 AM,17.1,10.9,77,30.17,10.0,SW,17.3,-,N/A,,Clear,230,2013-01-04 10:53:00
5:53 AM,16.0,10.0,77,30.18,10.0,WSW,19.6,-,N/A,,Clear,240,2013-01-04 11:53:00
6:53 AM,16.0,10.0,77,30.18,10.0,WSW,19.6,-,N/A,,Clear,250,2013-01-04 12:53:00
7:53 AM,16.0,10.0,77,30.17,10.0,WSW,19.6,-,N/A,,Clear,240,2013-01-04 13:53:00
8:53 AM,19.0,10.9,71,30.17,10.0,WSW,19.6,-,N/A,,Clear,250,2013-01-04 14:53:00
9:53 AM,19.9,12.0,71,30.19,10.0,WSW,16.1,-,N/A,,Clear,250,2013-01-04 15:53:00
10:53 AM,21.0,12.0,68,30.21,10.0,West,13.8,-,N/A,,Clear,270,2013-01-04 16:53:00
11:53 AM,23.0,12.9,65,30.19,10.0,West,15.0,-,N/A,,Clear,270,2013-01-04 17:53:00
12:53 PM,24.1,14.0,65,30.18,10.0,West,13.8,-,N/A,,Clear,270,2013-01-04 18:53:00
1:53 PM,25.0,16.0,69,30.17,10.0,West,11.5,-,N/A,,Clear,260,2013-01-04 19:53:00
2:53 PM,26.1,16.0,66,30.18,10.0,West,12.7,-,N/A,,Clear,260,2013-01-04 20:53:00
3:53 PM,25.0,16.0,69,30.19,10.0,West,8.1,-,N/A,,Clear,270,2013-01-04 21:53:00
4:53 PM,21.9,15.1,75,30.19,10.0,SW,5.8,-,N/A,,Clear,220,2013-01-04 22:53:00
5:53 PM,19.0,12.9,77,30.19,10.0,Calm,Calm,-,N/A,,Clear,0,2013-01-04 23:53:00
6:53 PM,18.0,12.9,81,30.22,10.0,WSW,3.5,-,N/A,,Clear,240,2013-01-05 00:53:00
7:53 PM,12.9,9.0,84,30.22,9.0,SSW,3.5,-,N/A,,Clear,200,2013-01-05 01:53:00
8:53 PM,10.9,7.0,84,30.20,7.0,South,6.9,-,N/A,,Clear,180,2013-01-05 02:53:00
9:53 PM,7.0,3.0,84,30.18,7.0,South,4.6,-,N/A,,Clear,170,2013-01-05 03:53:00
10:53 PM,8.1,5.0,87,30.19,7.0,South,6.9,-,N/A,,Clear,180,2013-01-05 04:53:00
11:53 PM,10.9,7.0,84,30.18,6.0,SSW,4.6,-,N/A,,Clear,210,2013-01-05 05:53:00